Time,TemperatureF,DewpointF,PressureIn,WindDirection,WindDirectionDegrees,WindSpeedMPH,WindSpeedGustMPH,Humidity,HourlyPrecipIn,Conditions,Clouds,dailyrainin,SoftwareType,DateUTC
2013-11-03 00:02:00,36.2,31.2,30.00,East,85,0.0,0.0,82,0.00,,,0.00,WeatherCatV1.21B27,2013-11-03 05:02:00,
2013-11-03 00:07:00,36.8,31.5,30.00,East,85,0.0,1.0,81,0.00,,,0.00,WeatherCatV1.21B27,2013-11-03 05:07:00,
2013-11-03 00:12:00,37.3,31.7,30.00,ESE,113,0.0,5.0,80,0.00,,,0.00,WeatherCatV1.21B27,2013-11-03 05:12:00,
2013-11-03 00:17:00,38.4,31.8,30.00,ESE,110,1.0,3.0,77,0.00,,,0.00,WeatherCatV1.21B27,2013-11-03 05:17:00,
2013-11-03 00:22:00,39.5,31.9,30.00,SE,125,1.0,2.0,74,0.00,,,0.00,WeatherCatV1.21B27,2013-11-03 05:22:00,
2013-11-03 00:27:00,40.0,32.1,30.00,SE,125,0.0,2.0,73,0.00,,,0.00,WeatherCatV1.21B27,2013-11-03 05:27:00,
2013-11-03 00:32:00,40.3,32.0,29.99,ESE,118,0.0,2.0,72,0.00,,,0.00,WeatherCatV1.21B27,2013-11-03 05:32:00,
2013-11-03 00:37:00,40.4,31.8,29.99,ESE,118,1.0,3.0,71,0.00,,,0.00,WeatherCatV1.21B27,2013-11-03 05:37:00,
2013-11-03 00:42:00,40.6,32.0,29.99,ESE,118,1.0,3.0,71,0.00,,,0.00,WeatherCatV1.21B27,2013-11-03 05:42:00,
2013-11-03 00:47:00,40.7,32.0,29.99,SE,138,2.0,6.0,71,0.00,,,0.00,WeatherCatV1.21B27,2013-11-03 05:47:00,
2013-11-03 00:52:00,41.0,32.0,29.99,SE,126,1.0,2.0,70,0.00,,,0.00,WeatherCatV1.21B27,2013-11-03 05:52:00,
2013-11-03 00:57:00,41.1,32.1,29.99,ESE,123,1.0,4.0,70,0.00,,,0.00,WeatherCatV1.21B27,2013-11-03 05:57:00,
2013-11-03 01:02:00,40.9,31.9,29.99,ESE,123,1.0,2.0,70,0.00,,,0.00,WeatherCatV1.21B27,2013-11-03 06:02:00,
2013-11-03 01:07:00,40.6,32.0,29.99,ESE,123,0.0,3.0,71,0.00,,,0.00,WeatherCatV1.21B27,2013-11-03 06:07:00,
2013-11-03 01:12:00,40.4,31.8,29.99,ESE,123,1.0,4.0,71,0.00,,,0.00,WeatherCatV1.21B27,2013-11-03 06:12:00,
2013-11-03 01:17:00,40.3,31.7,29.98,ESE,123,1.0,3.0,71,0.00,,,0.00,WeatherCatV1.21B27,2013-11-03 06:17:00,
2013-11-03 01:22:00,40.2,31.6,29.99,ESE,123,1.0,3.0,71,0.00,,,0.00,WeatherCatV1.21B27,2013-11-03 06:22:00,
2013-11-03 01:27:00,40.0,31.7,29.98,ESE,123,1.0,2.0,72,0.00,,,0.00,WeatherCatV1.21B27,2013-11-03 06:27:00,
2013-11-03 01:32:00,39.8,31.5,29.99,East,87,2.0,2.0,72,0.00,,,0.00,WeatherCatV1.21B27,2013-11-03 06:32:00,
2013-11-03 01:37:00,39.8,31.5,29.99,SE,141,1.0,2.0,72,0.00,,,0.00,WeatherCatV1.21B27,2013-11-03 06:37:00,
2013-11-03 01:42:00,39.8,31.5,29.99,SE,141,1.0,1.0,72,0.00,,,0.00,WeatherCatV1.21B27,2013-11-03 06:42:00,
2013-11-03 01:47:00,39.7,31.4,29.98,SE,141,1.0,3.0,72,0.00,,,0.00,WeatherCatV1.21B27,2013-11-03 06:47:00,
2013-11-03 01:52:00,39.7,31.4,29.98,ESE,121,4.0,5.0,72,0.00,,,0.00,WeatherCatV1.21B27,2013-11-03 06:52:00,
2013-11-03 01:57:00,39.8,31.5,29.98,ESE,113,1.0,7.0,72,0.00,,,0.00,WeatherCatV1.21B27,2013-11-03 06:57:00,
2013-11-03 01:02:00,40.0,31.7,29.98,SE,136,2.0,7.0,72,0.00,,,0.00,WeatherCatV1.21B27,2013-11-03 07:02:00,
2013-11-03 01:07:00,39.9,31.6,29.98,ESE,112,0.0,3.0,72,0.00,,,0.00,WeatherCatV1.21B27,2013-11-03 07:07:00,
2013-11-03 01:12:00,39.9,31.6,29.97,SE,125,2.0,3.0,72,0.00,,,0.00,WeatherCatV1.21B27,2013-11-03 07:12:00,
2013-11-03 01:17:00,39.9,31.6,29.97,SE,129,0.0,2.0,72,0.00,,,0.00,WeatherCatV1.21B27,2013-11-03 07:17:00,
2013-11-03 01:22:00,39.8,31.5,29.97,SE,129,0.0,1.0,72,0.00,,,0.00,WeatherCatV1.21B27,2013-11-03 07:22:00,
2013-11-03 01:27:00,39.6,31.3,29.97,ESE,116,2.0,3.0,72,0.00,,,0.00,WeatherCatV1.21B27,2013-11-03 07:27:00,
2013-11-03 01:32:00,39.6,31.3,29.97,ESE,123,2.0,8.0,72,0.00,,,0.00,WeatherCatV1.21B27,2013-11-03 07:32:00,
2013-11-03 01:37:00,39.7,31.4,29.97,SE,129,3.0,3.0,72,0.00,,,0.00,WeatherCatV1.21B27,2013-11-03 07:37:00,
2013-11-03 01:42:00,39.7,31.4,29.97,SE,134,2.0,5.0,72,0.00,,,0.00,WeatherCatV1.21B27,2013-11-03 07:42:00,
2013-11-03 01:47:00,39.7,31.4,29.96,ESE,122,1.0,5.0,72,0.00,,,0.00,WeatherCatV1.21B27,2013-11-03 07:47:00,
2013-11-03 01:52:00,39.6,31.3,29.96,SE,145,0.0,4.0,72,0.00,,,0.00,WeatherCatV1.21B27,2013-11-03 07:52:00,
2013-11-03 01:57:00,39.5,31.6,29.95,ESE,122,1.0,3.0,73,0.00,,,0.00,WeatherCatV1.21B27,2013-11-03 07:57:00,
2013-11-03 02:02:00,39.2,31.3,29.95,ESE,116,1.0,4.0,73,0.00,,,0.00,WeatherCatV1.21B27,2013-11-03 08:02:00,
2013-11-03 02:07:00,39.0,31.1,29.95,SE,128,5.0,7.0,73,0.00,,,0.00,WeatherCatV1.21B27,2013-11-03 08:07:00,
2013-11-03 02:12:00,38.9,31.3,29.95,SE,126,0.0,3.0,74,0.00,,,0.00,WeatherCatV1.21B27,2013-11-03 08:12:00,
2013-11-03 02:17:00,38.8,31.2,29.95,SE,126,0.0,3.0,74,0.00,,,0.00,WeatherCatV1.21B27,2013-11-03 08:17:00,
2013-11-03 02:22:00,38.7,31.1,29.95,SE,126,0.0,1.0,74,0.00,,,0.00,WeatherCatV1.21B27,2013-11-03 08:22:00,
2013-11-03 02:27:00,38.7,31.1,29.94,SSE,148,0.0,3.0,74,0.00,,,0.00,WeatherCatV1.21B27,2013-11-03 08:27:00,
2013-11-03 02:32:00,38.7,31.1,29.94,SE,143,0.0,3.0,74,0.00,,,0.00,WeatherCatV1.21B27,2013-11-03 08:32:00,
2013-11-03 02:37:00,38.6,31.4,29.94,SE,143,1.0,2.0,75,0.00,,,0.00,WeatherCatV1.21B27,2013-11-03 08:37:00,
2013-11-03 02:42:00,38.6,31.4,29.94,SE,133,2.0,4.0,75,0.00,,,0.00,WeatherCatV1.21B27,2013-11-03 08:42:00,
2013-11-03 02:47:00,38.6,31.4,29.94,ESE,118,1.0,4.0,75,0.00,,,0.00,WeatherCatV1.21B27,2013-11-03 08:47:00,
2013-11-03 02:52:00,38.7,31.5,29.94,SE,125,1.0,4.0,75,0.00,,,0.00,WeatherCatV1.21B27,2013-11-03 08:52:00,
2013-11-03 02:57:00,38.8,31.6,29.93,ESE,123,1.0,4.0,75,0.00,,,0.00,WeatherCatV1.21B27,2013-11-03 08:57:00,
2013-11-03 03:02:00,38.9,31.7,29.93,SE,133,2.0,3.0,75,0.00,,,0.00,WeatherCatV1.21B27,2013-11-03 09:02:00,
2013-11-03 03:07:00,38.9,31.7,29.93,SE,131,4.0,5.0,75,0.00,,,0.00,WeatherCatV1.21B27,2013-11-03 09:07:00,
2013-11-03 03:12:00,39.0,31.4,29.92,SE,128,5.0,7.0,74,0.00,,,0.00,WeatherCatV1.21B27,2013-11-03 09:12:00,
2013-11-03 03:17:00,39.2,31.6,29.93,ESE,117,3.0,4.0,74,0.00,,,0.00,WeatherCatV1.21B27,2013-11-03 09:17:00,
2013-11-03 03:22:00,39.2,31.6,29.92,SE,126,2.0,3.0,74,0.00,,,0.00,WeatherCatV1.21B27,2013-11-03 09:22:00,
2013-11-03 03:27:00,39.2,31.6,29.92,SE,135,2.0,4.0,74,0.00,,,0.00,WeatherCatV1.21B27,2013-11-03 09:27:00,
2013-11-03 03:32:00,39.1,31.5,29.92,SE,131,4.0,4.0,74,0.00,,,0.00,WeatherCatV1.21B27,2013-11-03 09:32:00,
2013-11-03 03:37:00,39.1,31.5,29.92,ESE,116,3.0,4.0,74,0.00,,,0.00,WeatherCatV1.21B27,2013-11-03 09:37:00,
2013-11-03 03:42:00,39.1,31.9,29.92,SE,127,1.0,6.0,75,0.00,,,0.00,WeatherCatV1.21B27,2013-11-03 09:42:00,
2013-11-03 03:47:00,39.0,31.8,29.92,SE,138,2.0,5.0,75,0.00,,,0.00,WeatherCatV1.21B27,2013-11-03 09:47:00,
2013-11-03 03:52:00,39.1,31.5,29.91,ESE,112,4.0,9.0,74,0.00,,,0.00,WeatherCatV1.21B27,2013-11-03 09:52:00,
2013-11-03 03:57:00,39.2,31.6,29.91,East,100,6.0,9.0,74,0.00,,,0.00,WeatherCatV1.21B27,2013-11-03 09:57:00,
2013-11-03 04:02:00,39.2,31.6,29.91,SE,126,8.0,8.0,74,0.00,,,0.00,WeatherCatV1.21B27,2013-11-03 10:02:00,
2013-11-03 04:07:00,39.3,31.7,29.90,SE,135,4.0,6.0,74,0.00,,,0.00,WeatherCatV1.21B27,2013-11-03 10:07:00,
2013-11-03 04:12:00,39.3,31.7,29.90,SE,142,1.0,6.0,74,0.00,,,0.00,WeatherCatV1.21B27,2013-11-03 10:12:00,
2013-11-03 04:17:00,39.3,31.7,29.90,ESE,116,5.0,5.0,74,0.00,,,0.00,WeatherCatV1.21B27,2013-11-03 10:17:00,
2013-11-03 04:22:00,39.3,31.7,29.90,ESE,108,3.0,6.0,74,0.00,,,0.00,WeatherCatV1.21B27,2013-11-03 10:22:00,
2013-11-03 04:27:00,39.4,31.8,29.90,ESE,116,4.0,6.0,74,0.00,,,0.00,WeatherCatV1.21B27,2013-11-03 10:27:00,
2013-11-03 04:32:00,39.6,32.0,29.90,ESE,113,2.0,3.0,74,0.00,,,0.00,WeatherCatV1.21B27,2013-11-03 10:32:00,
2013-11-03 04:37:00,39.8,31.9,29.89,ESE,117,9.0,9.0,73,0.00,,,0.00,WeatherCatV1.21B27,2013-11-03 10:37:00,
2013-11-03 04:42:00,40.0,32.1,29.89,East,96,2.0,7.0,73,0.00,,,0.00,WeatherCatV1.21B27,2013-11-03 10:42:00,
2013-11-03 04:47:00,40.0,32.1,29.89,SE,125,4.0,6.0,73,0.00,,,0.00,WeatherCatV1.21B27,2013-11-03 10:47:00,
2013-11-03 04:52:00,40.0,32.1,29.88,SE,137,1.0,8.0,73,0.00,,,0.00,WeatherCatV1.21B27,2013-11-03 10:52:00,
2013-11-03 04:57:00,39.9,32.0,29.88,ESE,119,3.0,5.0,73,0.00,,,0.00,WeatherCatV1.21B27,2013-11-03 10:57:00,
2013-11-03 05:02:00,39.9,32.0,29.88,ESE,123,5.0,10.0,73,0.00,,,0.00,WeatherCatV1.21B27,2013-11-03 11:02:00,
2013-11-03 05:07:00,39.9,32.0,29.88,SE,127,0.0,8.0,73,0.00,,,0.00,WeatherCatV1.21B27,2013-11-03 11:07:00,
2013-11-03 05:12:00,39.8,31.9,29.87,South,174,5.0,9.0,73,0.00,,,0.00,WeatherCatV1.21B27,2013-11-03 11:12:00,
2013-11-03 05:17:00,39.9,32.0,29.87,SE,127,3.0,12.0,73,0.00,,,0.00,WeatherCatV1.21B27,2013-11-03 11:17:00,
2013-11-03 05:22:00,40.0,32.1,29.87,ESE,114,3.0,14.0,73,0.00,,,0.00,WeatherCatV1.21B27,2013-11-03 11:22:00,
2013-11-03 05:27:00,39.8,32.2,29.87,SE,124,3.0,13.0,74,0.00,,,0.00,WeatherCatV1.21B27,2013-11-03 11:27:00,
2013-11-03 05:32:00,39.6,32.0,29.86,ESE,120,4.0,12.0,74,0.00,,,0.00,WeatherCatV1.21B27,2013-11-03 11:32:00,
2013-11-03 05:37:00,39.5,32.2,29.87,ESE,114,10.0,10.0,75,0.00,,,0.00,WeatherCatV1.21B27,2013-11-03 11:37:00,
2013-11-03 05:42:00,39.3,32.0,29.86,SE,131,2.0,10.0,75,0.00,,,0.00,WeatherCatV1.21B27,2013-11-03 11:42:00,
2013-11-03 05:47:00,39.1,31.9,29.86,ESE,117,7.0,10.0,75,0.00,,,0.00,WeatherCatV1.21B27,2013-11-03 11:47:00,
2013-11-03 05:52:00,39.0,32.1,29.86,ESE,121,1.0,9.0,76,0.00,,,0.00,WeatherCatV1.21B27,2013-11-03 11:52:00,
2013-11-03 05:57:00,38.9,32.0,29.86,ESE,108,5.0,11.0,76,0.00,,,0.00,WeatherCatV1.21B27,2013-11-03 11:57:00,
2013-11-03 06:02:00,38.9,32.0,29.86,ESE,106,6.0,7.0,76,0.00,,,0.00,WeatherCatV1.21B27,2013-11-03 12:02:00,
2013-11-03 06:07:00,38.8,32.2,29.85,ESE,112,2.0,5.0,77,0.00,,,0.00,WeatherCatV1.21B27,2013-11-03 12:07:00,
2013-11-03 06:12:00,38.7,32.1,29.85,SE,139,6.0,13.0,77,0.00,,,0.00,WeatherCatV1.21B27,2013-11-03 12:12:00,
2013-11-03 06:17:00,38.7,32.1,29.85,SE,132,3.0,8.0,77,0.00,,,0.00,WeatherCatV1.21B27,2013-11-03 12:17:00,
2013-11-03 06:22:00,38.6,32.0,29.85,SE,137,4.0,9.0,77,0.00,,,0.00,WeatherCatV1.21B27,2013-11-03 12:22:00,
2013-11-03 06:27:00,38.6,32.0,29.85,SE,143,2.0,7.0,77,0.00,,,0.00,WeatherCatV1.21B27,2013-11-03 12:27:00,
2013-11-03 06:32:00,38.6,32.0,29.84,ESE,112,5.0,8.0,77,0.00,,,0.00,WeatherCatV1.21B27,2013-11-03 12:32:00,
2013-11-03 06:37:00,38.7,32.1,29.84,SE,124,2.0,12.0,77,0.00,,,0.00,WeatherCatV1.21B27,2013-11-03 12:37:00,
2013-11-03 06:42:00,38.9,32.3,29.84,ESE,116,2.0,12.0,77,0.00,,,0.00,WeatherCatV1.21B27,2013-11-03 12:42:00,
2013-11-03 06:47:00,39.2,32.3,29.84,ESE,114,5.0,7.0,76,0.00,,,0.00,WeatherCatV1.21B27,2013-11-03 12:47:00,
2013-11-03 06:52:00,39.6,32.7,29.83,ESE,123,1.0,10.0,76,0.00,,,0.00,WeatherCatV1.21B27,2013-11-03 12:52:00,
2013-11-03 06:57:00,40.0,32.7,29.83,SE,139,2.0,10.0,75,0.00,,,0.00,WeatherCatV1.21B27,2013-11-03 12:57:00,
2013-11-03 07:02:00,40.2,32.6,29.83,SE,124,4.0,12.0,74,0.00,,,0.00,WeatherCatV1.21B27,2013-11-03 13:02:00,
2013-11-03 07:07:00,40.3,32.7,29.83,East,95,2.0,14.0,74,0.00,,,0.00,WeatherCatV1.21B27,2013-11-03 13:07:00,
2013-11-03 07:12:00,40.3,32.3,29.83,ESE,112,3.0,13.0,73,0.00,,,0.00,WeatherCatV1.21B27,2013-11-03 13:12:00,
2013-11-03 07:17:00,40.5,32.5,29.83,South,185,4.0,17.0,73,0.00,,,0.00,WeatherCatV1.21B27,2013-11-03 13:17:00,
2013-11-03 07:22:00,40.7,32.7,29.83,ESE,106,5.0,8.0,73,0.00,,,0.00,WeatherCatV1.21B27,2013-11-03 13:22:00,
2013-11-03 07:27:00,40.8,32.8,29.83,SE,126,2.0,7.0,73,0.00,,,0.00,WeatherCatV1.21B27,2013-11-03 13:27:00,
2013-11-03 07:32:00,40.9,32.6,29.83,ESE,114,5.0,11.0,72,0.00,,,0.00,WeatherCatV1.21B27,2013-11-03 13:32:00,
2013-11-03 07:37:00,41.0,32.7,29.83,ESE,106,10.0,14.0,72,0.00,,,0.00,WeatherCatV1.21B27,2013-11-03 13:37:00,
2013-11-03 07:42:00,41.1,32.8,29.83,East,101,7.0,17.0,72,0.00,,,0.00,WeatherCatV1.21B27,2013-11-03 13:42:00,
2013-11-03 07:47:00,41.3,33.0,29.83,SSE,158,4.0,19.0,72,0.00,,,0.00,WeatherCatV1.21B27,2013-11-03 13:47:00,
2013-11-03 07:52:00,41.5,32.8,29.83,ESE,121,7.0,11.0,71,0.00,,,0.00,WeatherCatV1.21B27,2013-11-03 13:52:00,
2013-11-03 07:57:00,41.7,33.0,29.83,ESE,116,9.0,9.0,71,0.00,,,0.00,WeatherCatV1.21B27,2013-11-03 13:57:00,
2013-11-03 08:02:00,42.1,33.4,29.83,SSW,201,7.0,13.0,71,0.00,,,0.00,WeatherCatV1.21B27,2013-11-03 14:02:00,
2013-11-03 08:07:00,42.5,33.4,29.82,SE,132,15.0,15.0,70,0.00,,,0.00,WeatherCatV1.21B27,2013-11-03 14:07:00,
2013-11-03 08:12:00,42.7,33.6,29.82,SE,127,4.0,14.0,70,0.00,,,0.00,WeatherCatV1.21B27,2013-11-03 14:12:00,
2013-11-03 08:17:00,42.9,33.4,29.82,ESE,114,12.0,13.0,69,0.00,,,0.00,WeatherCatV1.21B27,2013-11-03 14:17:00,
2013-11-03 08:22:00,42.9,33.4,29.82,ESE,115,4.0,17.0,69,0.00,,,0.00,WeatherCatV1.21B27,2013-11-03 14:22:00,
2013-11-03 08:27:00,43.0,33.5,29.82,ESE,123,5.0,14.0,69,0.00,,,0.00,WeatherCatV1.21B27,2013-11-03 14:27:00,
2013-11-03 08:32:00,43.4,33.5,29.81,East,98,3.0,10.0,68,0.00,,,0.00,WeatherCatV1.21B27,2013-11-03 14:32:00,
2013-11-03 08:37:00,44.1,33.8,29.81,South,186,5.0,7.0,67,0.00,,,0.00,WeatherCatV1.21B27,2013-11-03 14:37:00,
2013-11-03 08:42:00,44.8,34.1,29.81,SW,220,7.0,12.0,66,0.00,,,0.00,WeatherCatV1.21B27,2013-11-03 14:42:00,
2013-11-03 08:47:00,45.6,34.1,29.81,SW,217,5.0,12.0,64,0.00,,,0.00,WeatherCatV1.21B27,2013-11-03 14:47:00,
2013-11-03 08:52:00,46.4,34.1,29.81,SE,131,3.0,17.0,62,0.00,,,0.00,WeatherCatV1.21B27,2013-11-03 14:52:00,
2013-11-03 08:57:00,46.7,34.0,29.81,SE,125,5.0,11.0,61,0.00,,,0.00,WeatherCatV1.21B27,2013-11-03 14:57:00,
2013-11-03 09:02:00,47.2,33.6,29.81,SE,139,6.0,12.0,59,0.00,,,0.00,WeatherCatV1.21B27,2013-11-03 15:02:00,
2013-11-03 09:07:00,47.6,34.0,29.80,ESE,102,5.0,12.0,59,0.00,,,0.00,WeatherCatV1.21B27,2013-11-03 15:07:00,
2013-11-03 09:12:00,48.1,33.2,29.80,SSE,151,2.0,19.0,56,0.00,,,0.00,WeatherCatV1.21B27,2013-11-03 15:12:00,
2013-11-03 09:17:00,48.5,34.0,29.80,SSE,148,4.0,12.0,57,0.00,,,0.00,WeatherCatV1.21B27,2013-11-03 15:17:00,
2013-11-03 09:22:00,48.8,32.9,29.79,ESE,110,11.0,18.0,54,0.00,,,0.00,WeatherCatV1.21B27,2013-11-03 15:22:00,
2013-11-03 09:27:00,48.9,33.0,29.79,SE,133,8.0,14.0,54,0.00,,,0.00,WeatherCatV1.21B27,2013-11-03 15:27:00,
2013-11-03 09:32:00,49.1,32.7,29.79,ESE,114,3.0,13.0,53,0.00,,,0.00,WeatherCatV1.21B27,2013-11-03 15:32:00,
2013-11-03 09:37:00,49.5,33.1,29.79,East,101,8.0,12.0,53,0.00,,,0.00,WeatherCatV1.21B27,2013-11-03 15:37:00,
2013-11-03 09:42:00,50.1,33.2,29.79,SE,142,9.0,10.0,52,0.00,,,0.00,WeatherCatV1.21B27,2013-11-03 15:42:00,
2013-11-03 09:48:00,50.2,32.8,29.79,East,88,5.0,10.0,51,0.00,,,0.00,WeatherCatV1.21B27,2013-11-03 15:48:00,
2013-11-03 09:53:00,50.2,32.8,29.78,East,81,4.0,15.0,51,0.00,,,0.00,WeatherCatV1.21B27,2013-11-03 15:53:00,
2013-11-03 09:58:00,50.6,33.2,29.78,SE,135,7.0,8.0,51,0.00,,,0.00,WeatherCatV1.21B27,2013-11-03 15:58:00,
2013-11-03 10:03:00,51.0,33.5,29.77,South,174,8.0,11.0,51,0.00,,,0.00,WeatherCatV1.21B27,2013-11-03 16:03:00,
2013-11-03 10:08:00,51.0,33.0,29.76,ESE,120,15.0,20.0,50,0.00,,,0.00,WeatherCatV1.21B27,2013-11-03 16:08:00,
2013-11-03 10:13:00,51.0,33.5,29.76,ESE,112,4.0,14.0,51,0.00,,,0.00,WeatherCatV1.21B27,2013-11-03 16:13:00,
2013-11-03 10:18:00,50.7,33.2,29.76,ESE,105,15.0,19.0,51,0.00,,,0.00,WeatherCatV1.21B27,2013-11-03 16:18:00,
2013-11-03 10:23:00,50.3,32.9,29.76,SSW,205,4.0,15.0,51,0.00,,,0.00,WeatherCatV1.21B27,2013-11-03 16:23:00,
2013-11-03 10:28:00,50.3,32.9,29.76,ESE,120,7.0,13.0,51,0.00,,,0.00,WeatherCatV1.21B27,2013-11-03 16:28:00,
2013-11-03 10:33:00,50.7,33.2,29.75,ESE,118,4.0,17.0,51,0.00,,,0.00,WeatherCatV1.21B27,2013-11-03 16:33:00,
2013-11-03 10:38:00,51.3,33.3,29.75,ESE,114,8.0,18.0,50,0.00,,,0.00,WeatherCatV1.21B27,2013-11-03 16:38:00,
2013-11-03 10:43:00,51.8,33.8,29.75,ESE,112,7.0,13.0,50,0.00,,,0.00,WeatherCatV1.21B27,2013-11-03 16:43:00,
2013-11-03 10:48:00,51.6,33.1,29.75,SE,124,9.0,17.0,49,0.00,,,0.00,WeatherCatV1.21B27,2013-11-03 16:48:00,
2013-11-03 10:53:00,51.5,33.5,29.74,South,174,12.0,12.0,50,0.00,,,0.00,WeatherCatV1.21B27,2013-11-03 16:53:00,
2013-11-03 10:58:00,51.8,33.8,29.74,SE,131,8.0,12.0,50,0.00,,,0.00,WeatherCatV1.21B27,2013-11-03 16:58:00,
2013-11-03 11:03:00,51.9,33.8,29.74,SE,138,4.0,15.0,50,0.00,,,0.00,WeatherCatV1.21B27,2013-11-03 17:03:00,
2013-11-03 11:08:00,51.9,33.3,29.74,ESE,113,7.0,14.0,49,0.00,,,0.00,WeatherCatV1.21B27,2013-11-03 17:08:00,
2013-11-03 11:13:00,51.9,33.8,29.73,South,191,2.0,16.0,50,0.00,,,0.00,WeatherCatV1.21B27,2013-11-03 17:13:00,
2013-11-03 11:18:00,52.3,34.2,29.73,SE,137,5.0,17.0,50,0.00,,,0.00,WeatherCatV1.21B27,2013-11-03 17:18:00,
2013-11-03 11:23:00,52.5,33.9,29.73,SE,131,12.0,16.0,49,0.00,,,0.00,WeatherCatV1.21B27,2013-11-03 17:23:00,
2013-11-03 11:28:00,52.8,34.7,29.72,ESE,109,7.0,17.0,50,0.00,,,0.00,WeatherCatV1.21B27,2013-11-03 17:28:00,
2013-11-03 11:33:00,52.7,34.6,29.72,SSE,165,8.0,11.0,50,0.00,,,0.00,WeatherCatV1.21B27,2013-11-03 17:33:00,
2013-11-03 11:38:00,53.2,35.0,29.72,SE,133,8.0,16.0,50,0.00,,,0.00,WeatherCatV1.21B27,2013-11-03 17:38:00,
2013-11-03 11:43:00,53.4,34.7,29.71,ESE,104,7.0,19.0,49,0.00,,,0.00,WeatherCatV1.21B27,2013-11-03 17:43:00,
2013-11-03 11:48:00,53.9,35.2,29.71,SE,130,25.0,25.0,49,0.00,,,0.00,WeatherCatV1.21B27,2013-11-03 17:48:00,
2013-11-03 11:53:00,54.2,35.5,29.71,SE,131,8.0,11.0,49,0.00,,,0.00,WeatherCatV1.21B27,2013-11-03 17:53:00,
2013-11-03 11:58:00,54.6,35.3,29.70,ESE,122,11.0,15.0,48,0.00,,,0.00,WeatherCatV1.21B27,2013-11-03 17:58:00,
2013-11-03 12:03:00,55.2,35.9,29.71,ESE,123,9.0,16.0,48,0.00,,,0.00,WeatherCatV1.21B27,2013-11-03 18:03:00,
2013-11-03 12:08:00,55.5,36.1,29.70,SSE,155,6.0,13.0,48,0.00,,,0.00,WeatherCatV1.21B27,2013-11-03 18:08:00,
2013-11-03 12:13:00,55.4,36.0,29.69,SSE,161,10.0,13.0,48,0.00,,,0.00,WeatherCatV1.21B27,2013-11-03 18:13:00,
2013-11-03 12:18:00,55.2,35.3,29.70,WSW,244,7.0,16.0,47,0.00,,,0.00,WeatherCatV1.21B27,2013-11-03 18:18:00,
2013-11-03 12:23:00,54.9,35.6,29.69,ESE,116,8.0,15.0,48,0.00,,,0.00,WeatherCatV1.21B27,2013-11-03 18:23:00,
2013-11-03 12:28:00,54.6,35.3,29.69,SE,124,10.0,21.0,48,0.00,,,0.00,WeatherCatV1.21B27,2013-11-03 18:28:00,
2013-11-03 12:33:00,54.7,35.9,29.69,SSE,150,9.0,12.0,49,0.00,,,0.00,WeatherCatV1.21B27,2013-11-03 18:33:00,
2013-11-03 12:38:00,54.9,36.1,29.69,SE,135,8.0,10.0,49,0.00,,,0.00,WeatherCatV1.21B27,2013-11-03 18:38:00,
2013-11-03 12:43:00,55.3,36.0,29.69,SE,126,7.0,12.0,48,0.00,,,0.00,WeatherCatV1.21B27,2013-11-03 18:43:00,
2013-11-03 12:48:00,55.5,35.6,29.69,South,171,9.0,21.0,47,0.00,,,0.00,WeatherCatV1.21B27,2013-11-03 18:48:00,
2013-11-03 12:53:00,55.3,36.0,29.69,South,189,7.0,13.0,48,0.00,,,0.00,WeatherCatV1.21B27,2013-11-03 18:53:00,
2013-11-03 12:58:00,55.2,36.4,29.69,ESE,102,10.0,14.0,49,0.00,,,0.00,WeatherCatV1.21B27,2013-11-03 18:58:00,
2013-11-03 13:03:00,55.0,36.2,29.69,SE,146,20.0,20.0,49,0.00,,,0.00,WeatherCatV1.21B27,2013-11-03 19:03:00,
2013-11-03 13:08:00,54.8,36.0,29.68,SSE,164,6.0,10.0,49,0.00,,,0.00,WeatherCatV1.21B27,2013-11-03 19:08:00,
2013-11-03 13:13:00,54.8,36.0,29.68,SE,134,4.0,10.0,49,0.00,,,0.00,WeatherCatV1.21B27,2013-11-03 19:13:00,
2013-11-03 13:18:00,54.6,35.8,29.68,SSE,153,5.0,16.0,49,0.00,,,0.00,WeatherCatV1.21B27,2013-11-03 19:18:00,
2013-11-03 13:23:00,54.2,35.5,29.68,SE,137,6.0,15.0,49,0.00,,,0.00,WeatherCatV1.21B27,2013-11-03 19:23:00,
2013-11-03 13:28:00,54.2,36.0,29.68,SE,124,9.0,10.0,50,0.00,,,0.00,WeatherCatV1.21B27,2013-11-03 19:28:00,
2013-11-03 13:33:00,54.3,36.1,29.67,ESE,116,8.0,16.0,50,0.00,,,0.00,WeatherCatV1.21B27,2013-11-03 19:33:00,
2013-11-03 13:38:00,54.3,36.1,29.67,ESE,121,4.0,11.0,50,0.00,,,0.00,WeatherCatV1.21B27,2013-11-03 19:38:00,
2013-11-03 13:43:00,54.5,36.2,29.67,SSE,154,3.0,14.0,50,0.00,,,0.00,WeatherCatV1.21B27,2013-11-03 19:43:00,
2013-11-03 13:48:00,54.8,36.5,29.67,ESE,118,5.0,20.0,50,0.00,,,0.00,WeatherCatV1.21B27,2013-11-03 19:48:00,
2013-11-03 13:53:00,54.9,36.6,29.67,ESE,118,8.0,14.0,50,0.00,,,0.00,WeatherCatV1.21B27,2013-11-03 19:53:00,
2013-11-03 13:58:00,55.3,37.0,29.66,ESE,112,3.0,15.0,50,0.00,,,0.00,WeatherCatV1.21B27,2013-11-03 19:58:00,
2013-11-03 14:03:00,55.7,37.8,29.66,SE,130,7.0,14.0,51,0.00,,,0.00,WeatherCatV1.21B27,2013-11-03 20:03:00,
2013-11-03 14:08:00,55.9,37.0,29.66,ESE,113,8.0,17.0,49,0.00,,,0.00,WeatherCatV1.21B27,2013-11-03 20:08:00,
2013-11-03 14:13:00,56.1,36.7,29.66,SW,232,3.0,13.0,48,0.00,,,0.00,WeatherCatV1.21B27,2013-11-03 20:13:00,
2013-11-03 14:18:00,56.2,36.8,29.66,SE,135,9.0,18.0,48,0.00,,,0.00,WeatherCatV1.21B27,2013-11-03 20:18:00,
2013-11-03 14:23:00,56.0,36.6,29.66,East,83,7.0,19.0,48,0.00,,,0.00,WeatherCatV1.21B27,2013-11-03 20:23:00,
2013-11-03 14:28:00,55.6,36.7,29.66,SSE,154,9.0,15.0,49,0.00,,,0.00,WeatherCatV1.21B27,2013-11-03 20:28:00,
2013-11-03 14:33:00,55.5,37.2,29.65,ESE,104,9.0,10.0,50,0.00,,,0.00,WeatherCatV1.21B27,2013-11-03 20:33:00,
2013-11-03 14:38:00,55.4,37.1,29.65,SE,139,4.0,13.0,50,0.00,,,0.00,WeatherCatV1.21B27,2013-11-03 20:38:00,
2013-11-03 14:43:00,55.5,37.7,29.65,SE,124,9.0,9.0,51,0.00,,,0.00,WeatherCatV1.21B27,2013-11-03 20:43:00,
2013-11-03 14:48:00,55.6,37.3,29.65,ESE,106,5.0,10.0,50,0.00,,,0.00,WeatherCatV1.21B27,2013-11-03 20:48:00,
2013-11-03 14:53:00,55.8,37.4,29.65,East,89,5.0,9.0,50,0.00,,,0.00,WeatherCatV1.21B27,2013-11-03 20:53:00,
2013-11-03 14:58:00,56.0,37.1,29.65,SE,124,3.0,12.0,49,0.00,,,0.00,WeatherCatV1.21B27,2013-11-03 20:58:00,
2013-11-03 15:03:00,56.1,37.2,29.65,ESE,110,11.0,11.0,49,0.00,,,0.00,WeatherCatV1.21B27,2013-11-03 21:03:00,
2013-11-03 15:08:00,56.1,36.7,29.65,ESE,120,5.0,12.0,48,0.00,,,0.00,WeatherCatV1.21B27,2013-11-03 21:08:00,
2013-11-03 15:13:00,56.0,36.6,29.65,ESE,116,9.0,20.0,48,0.00,,,0.00,WeatherCatV1.21B27,2013-11-03 21:13:00,
2013-11-03 15:18:00,55.8,37.4,29.65,ESE,112,12.0,16.0,50,0.00,,,0.00,WeatherCatV1.21B27,2013-11-03 21:18:00,
2013-11-03 15:23:00,55.6,37.3,29.64,ESE,123,4.0,12.0,50,0.00,,,0.00,WeatherCatV1.21B27,2013-11-03 21:23:00,
2013-11-03 15:28:00,55.5,37.2,29.64,SE,127,4.0,16.0,50,0.00,,,0.00,WeatherCatV1.21B27,2013-11-03 21:28:00,
2013-11-03 15:33:00,55.5,37.2,29.65,SE,145,5.0,15.0,50,0.00,,,0.00,WeatherCatV1.21B27,2013-11-03 21:33:00,
2013-11-03 15:38:00,55.5,37.2,29.64,ESE,109,8.0,15.0,50,0.00,,,0.00,WeatherCatV1.21B27,2013-11-03 21:38:00,
2013-11-03 15:43:00,55.6,37.3,29.64,SE,136,4.0,10.0,50,0.00,,,0.00,WeatherCatV1.21B27,2013-11-03 21:43:00,
2013-11-03 15:48:00,55.9,37.5,29.64,SE,140,11.0,16.0,50,0.00,,,0.00,WeatherCatV1.21B27,2013-11-03 21:48:00,
2013-11-03 15:53:00,56.1,37.7,29.64,SE,129,10.0,18.0,50,0.00,,,0.00,WeatherCatV1.21B27,2013-11-03 21:53:00,
2013-11-03 15:58:00,56.2,37.3,29.64,East,82,8.0,21.0,49,0.00,,,0.00,WeatherCatV1.21B27,2013-11-03 21:58:00,
2013-11-03 16:03:00,56.0,37.1,29.65,ESE,117,9.0,17.0,49,0.00,,,0.00,WeatherCatV1.21B27,2013-11-03 22:03:00,
2013-11-03 16:08:00,55.8,37.4,29.65,ESE,106,11.0,17.0,50,0.00,,,0.00,WeatherCatV1.21B27,2013-11-03 22:08:00,
2013-11-03 16:13:00,55.5,37.2,29.65,SE,143,4.0,9.0,50,0.00,,,0.00,WeatherCatV1.21B27,2013-11-03 22:13:00,
2013-11-03 16:18:00,55.4,37.1,29.65,ESE,122,4.0,14.0,50,0.00,,,0.00,WeatherCatV1.21B27,2013-11-03 22:18:00,
2013-11-03 16:23:00,55.2,36.9,29.65,ESE,122,5.0,14.0,50,0.00,,,0.00,WeatherCatV1.21B27,2013-11-03 22:23:00,
2013-11-03 16:28:00,55.0,37.2,29.65,ESE,114,7.0,11.0,51,0.00,,,0.00,WeatherCatV1.21B27,2013-11-03 22:28:00,
2013-11-03 16:33:00,54.9,37.6,29.65,SE,145,6.0,19.0,52,0.00,,,0.00,WeatherCatV1.21B27,2013-11-03 22:33:00,
2013-11-03 16:38:00,54.7,37.4,29.65,ESE,112,8.0,11.0,52,0.00,,,0.00,WeatherCatV1.21B27,2013-11-03 22:38:00,
2013-11-03 16:43:00,54.5,37.2,29.65,ESE,118,2.0,10.0,52,0.00,,,0.00,WeatherCatV1.21B27,2013-11-03 22:43:00,
2013-11-03 16:48:00,54.1,37.3,29.65,ESE,123,4.0,11.0,53,0.00,,,0.00,WeatherCatV1.21B27,2013-11-03 22:48:00,
2013-11-03 16:53:00,53.8,37.1,29.65,ESE,116,10.0,10.0,53,0.00,,,0.00,WeatherCatV1.21B27,2013-11-03 22:53:00,
2013-11-03 16:58:00,53.5,37.3,29.65,SE,146,5.0,11.0,54,0.00,,,0.00,WeatherCatV1.21B27,2013-11-03 22:58:00,
2013-11-03 17:03:00,53.2,37.0,29.65,ESE,120,3.0,10.0,54,0.00,,,0.00,WeatherCatV1.21B27,2013-11-03 23:03:00,
2013-11-03 17:08:00,53.0,37.3,29.66,East,90,8.0,8.0,55,0.00,,,0.00,WeatherCatV1.21B27,2013-11-03 23:08:00,
2013-11-03 17:13:00,52.9,37.2,29.65,SE,124,5.0,12.0,55,0.00,,,0.00,WeatherCatV1.21B27,2013-11-03 23:13:00,
2013-11-03 17:18:00,52.8,37.1,29.66,ESE,108,4.0,12.0,55,0.00,,,0.00,WeatherCatV1.21B27,2013-11-03 23:18:00,
2013-11-03 17:23:00,52.6,36.9,29.66,ESE,108,5.0,11.0,55,0.00,,,0.00,WeatherCatV1.21B27,2013-11-03 23:23:00,
2013-11-03 17:28:00,52.5,37.3,29.66,SSE,161,4.0,7.0,56,0.00,,,0.00,WeatherCatV1.21B27,2013-11-03 23:28:00,
2013-11-03 17:33:00,52.2,37.0,29.66,ESE,116,1.0,10.0,56,0.00,,,0.00,WeatherCatV1.21B27,2013-11-03 23:33:00,
2013-11-03 17:38:00,52.0,37.2,29.66,ESE,107,4.0,5.0,57,0.00,,,0.00,WeatherCatV1.21B27,2013-11-03 23:38:00,
2013-11-03 17:43:00,51.8,37.1,29.66,ESE,118,3.0,9.0,57,0.00,,,0.00,WeatherCatV1.21B27,2013-11-03 23:43:00,
2013-11-03 17:48:00,51.5,37.2,29.66,ESE,111,1.0,5.0,58,0.00,,,0.00,WeatherCatV1.21B27,2013-11-03 23:48:00,
2013-11-03 17:53:00,51.3,37.0,29.66,ESE,120,1.0,11.0,58,0.00,,,0.00,WeatherCatV1.21B27,2013-11-03 23:53:00,
2013-11-03 17:58:00,51.2,36.9,29.66,SE,133,4.0,9.0,58,0.00,,,0.00,WeatherCatV1.21B27,2013-11-03 23:58:00,
2013-11-03 18:03:00,51.2,37.4,29.66,SE,139,6.0,9.0,59,0.00,,,0.00,WeatherCatV1.21B27,2013-11-04 00:03:00,
2013-11-03 18:08:00,51.2,37.4,29.66,SE,126,1.0,3.0,59,0.00,,,0.00,WeatherCatV1.21B27,2013-11-04 00:08:00,
2013-11-03 18:13:00,51.1,37.3,29.66,SE,136,0.0,8.0,59,0.00,,,0.00,WeatherCatV1.21B27,2013-11-04 00:13:00,
2013-11-03 18:18:00,51.0,37.6,29.67,ESE,111,3.0,10.0,60,0.00,,,0.00,WeatherCatV1.21B27,2013-11-04 00:18:00,
2013-11-03 18:23:00,50.9,37.5,29.67,SSE,150,2.0,7.0,60,0.00,,,0.00,WeatherCatV1.21B27,2013-11-04 00:23:00,
2013-11-03 18:28:00,50.9,37.5,29.67,ESE,103,1.0,7.0,60,0.00,,,0.00,WeatherCatV1.21B27,2013-11-04 00:28:00,
2013-11-03 18:33:00,50.8,37.4,29.67,SE,125,2.0,8.0,60,0.00,,,0.00,WeatherCatV1.21B27,2013-11-04 00:33:00,
2013-11-03 18:38:00,50.6,37.2,29.67,ESE,115,0.0,7.0,60,0.00,,,0.00,WeatherCatV1.21B27,2013-11-04 00:38:00,
2013-11-03 18:43:00,50.5,37.6,29.67,ESE,110,0.0,5.0,61,0.00,,,0.00,WeatherCatV1.21B27,2013-11-04 00:43:00,
2013-11-03 18:48:00,50.4,37.5,29.66,ESE,114,4.0,5.0,61,0.00,,,0.00,WeatherCatV1.21B27,2013-11-04 00:48:00,
2013-11-03 18:53:00,50.3,37.4,29.67,ESE,121,4.0,5.0,61,0.00,,,0.00,WeatherCatV1.21B27,2013-11-04 00:53:00,
2013-11-03 18:58:00,50.3,37.4,29.67,SE,124,3.0,6.0,61,0.00,,,0.00,WeatherCatV1.21B27,2013-11-04 00:58:00,
2013-11-03 19:03:00,50.3,37.8,29.67,SE,135,6.0,8.0,62,0.00,,,0.00,WeatherCatV1.21B27,2013-11-04 01:03:00,
2013-11-03 19:08:00,50.3,37.4,29.67,SSE,155,8.0,10.0,61,0.00,,,0.00,WeatherCatV1.21B27,2013-11-04 01:08:00,
2013-11-03 19:13:00,50.3,37.4,29.67,SE,139,4.0,7.0,61,0.00,,,0.00,WeatherCatV1.21B27,2013-11-04 01:13:00,
2013-11-03 19:18:00,50.4,37.5,29.67,ESE,123,5.0,5.0,61,0.00,,,0.00,WeatherCatV1.21B27,2013-11-04 01:18:00,
2013-11-03 19:23:00,50.3,37.8,29.67,SE,130,1.0,15.0,62,0.00,,,0.00,WeatherCatV1.21B27,2013-11-04 01:23:00,
2013-11-03 19:28:00,50.2,37.7,29.68,SE,131,1.0,4.0,62,0.00,,,0.00,WeatherCatV1.21B27,2013-11-04 01:28:00,
2013-11-03 19:33:00,50.1,37.6,29.68,SSW,201,0.0,8.0,62,0.00,,,0.00,WeatherCatV1.21B27,2013-11-04 01:33:00,
2013-11-03 19:38:00,50.0,37.5,29.68,ESE,123,2.0,12.0,62,0.00,,,0.00,WeatherCatV1.21B27,2013-11-04 01:38:00,
2013-11-03 19:43:00,50.0,37.5,29.68,SE,139,2.0,7.0,62,0.00,,,0.00,WeatherCatV1.21B27,2013-11-04 01:43:00,
2013-11-03 19:48:00,49.9,37.4,29.68,ESE,116,3.0,8.0,62,0.00,,,0.00,WeatherCatV1.21B27,2013-11-04 01:48:00,
2013-11-03 19:53:00,49.9,37.4,29.68,ESE,116,7.0,10.0,62,0.00,,,0.00,WeatherCatV1.21B27,2013-11-04 01:53:00,
2013-11-03 19:58:00,49.9,37.4,29.68,ESE,113,4.0,10.0,62,0.00,,,0.00,WeatherCatV1.21B27,2013-11-04 01:58:00,
2013-11-03 20:03:00,49.7,37.2,29.68,SE,133,3.0,9.0,62,0.00,,,0.00,WeatherCatV1.21B27,2013-11-04 02:03:00,
2013-11-03 20:08:00,49.7,37.2,29.68,SE,128,4.0,13.0,62,0.00,,,0.00,WeatherCatV1.21B27,2013-11-04 02:08:00,
2013-11-03 20:13:00,49.6,37.5,29.68,ESE,111,4.0,7.0,63,0.00,,,0.00,WeatherCatV1.21B27,2013-11-04 02:13:00,
2013-11-03 20:18:00,49.5,37.4,29.68,SE,144,6.0,12.0,63,0.00,,,0.00,WeatherCatV1.21B27,2013-11-04 02:18:00,
2013-11-03 20:23:00,49.5,37.4,29.68,ESE,122,3.0,10.0,63,0.00,,,0.00,WeatherCatV1.21B27,2013-11-04 02:23:00,
2013-11-03 20:28:00,49.3,37.2,29.68,ESE,118,5.0,12.0,63,0.00,,,0.00,WeatherCatV1.21B27,2013-11-04 02:28:00,
2013-11-03 20:33:00,49.3,37.6,29.68,SE,132,3.0,9.0,64,0.00,,,0.00,WeatherCatV1.21B27,2013-11-04 02:33:00,
2013-11-03 20:38:00,49.1,37.5,29.68,ESE,107,4.0,10.0,64,0.00,,,0.00,WeatherCatV1.21B27,2013-11-04 02:38:00,
2013-11-03 20:43:00,49.0,37.4,29.68,SE,132,4.0,8.0,64,0.00,,,0.00,WeatherCatV1.21B27,2013-11-04 02:43:00,
2013-11-03 20:48:00,49.0,37.8,29.68,ESE,122,3.0,7.0,65,0.00,,,0.00,WeatherCatV1.21B27,2013-11-04 02:48:00,
2013-11-03 20:53:00,48.8,37.6,29.68,ESE,112,3.0,10.0,65,0.00,,,0.00,WeatherCatV1.21B27,2013-11-04 02:53:00,
2013-11-03 20:58:00,48.7,37.5,29.68,SE,142,2.0,7.0,65,0.00,,,0.00,WeatherCatV1.21B27,2013-11-04 02:58:00,
2013-11-03 21:03:00,48.7,37.5,29.68,SSE,159,3.0,9.0,65,0.00,,,0.00,WeatherCatV1.21B27,2013-11-04 03:03:00,
2013-11-03 21:08:00,48.7,37.9,29.68,SSE,155,2.0,6.0,66,0.00,,,0.00,WeatherCatV1.21B27,2013-11-04 03:08:00,
2013-11-03 21:13:00,48.5,37.7,29.68,ESE,120,3.0,9.0,66,0.00,,,0.00,WeatherCatV1.21B27,2013-11-04 03:13:00,
2013-11-03 21:18:00,48.4,37.6,29.68,ESE,111,4.0,7.0,66,0.00,,,0.00,WeatherCatV1.21B27,2013-11-04 03:18:00,
2013-11-03 21:23:00,48.2,37.4,29.68,ESE,103,2.0,9.0,66,0.00,,,0.00,WeatherCatV1.21B27,2013-11-04 03:23:00,
2013-11-03 21:28:00,48.2,37.4,29.69,ESE,120,2.0,10.0,66,0.00,,,0.00,WeatherCatV1.21B27,2013-11-04 03:28:00,
2013-11-03 21:33:00,48.2,37.4,29.69,ESE,122,2.0,8.0,66,0.00,,,0.00,WeatherCatV1.21B27,2013-11-04 03:33:00,
2013-11-03 21:38:00,48.1,37.3,29.69,SE,140,1.0,5.0,66,0.00,,,0.00,WeatherCatV1.21B27,2013-11-04 03:38:00,
2013-11-03 21:43:00,48.0,37.6,29.69,SE,127,3.0,16.0,67,0.00,,,0.00,WeatherCatV1.21B27,2013-11-04 03:43:00,
2013-11-03 21:48:00,47.9,37.5,29.69,ESE,108,4.0,9.0,67,0.00,,,0.00,WeatherCatV1.21B27,2013-11-04 03:48:00,
2013-11-03 21:53:00,47.7,37.3,29.69,SE,128,0.0,7.0,67,0.00,,,0.00,WeatherCatV1.21B27,2013-11-04 03:53:00,
2013-11-03 21:58:00,47.5,37.5,29.69,SSE,151,3.0,8.0,68,0.00,,,0.00,WeatherCatV1.21B27,2013-11-04 03:58:00,
2013-11-03 22:03:00,47.3,37.3,29.69,ESE,121,3.0,7.0,68,0.00,,,0.00,WeatherCatV1.21B27,2013-11-04 04:03:00,
2013-11-03 22:08:00,47.3,37.7,29.69,SE,126,3.0,4.0,69,0.00,,,0.00,WeatherCatV1.21B27,2013-11-04 04:08:00,
2013-11-03 22:13:00,47.3,37.7,29.69,SE,128,1.0,7.0,69,0.00,,,0.00,WeatherCatV1.21B27,2013-11-04 04:13:00,
2013-11-03 22:18:00,47.3,37.7,29.69,East,99,3.0,8.0,69,0.00,,,0.00,WeatherCatV1.21B27,2013-11-04 04:18:00,
2013-11-03 22:23:00,47.2,37.6,29.69,ESE,120,5.0,5.0,69,0.00,,,0.00,WeatherCatV1.21B27,2013-11-04 04:23:00,
2013-11-03 22:28:00,47.0,37.4,29.69,SE,145,3.0,9.0,69,0.00,,,0.00,WeatherCatV1.21B27,2013-11-04 04:28:00,
2013-11-03 22:33:00,47.0,37.7,29.69,ESE,113,4.0,6.0,70,0.00,,,0.00,WeatherCatV1.21B27,2013-11-04 04:33:00,
2013-11-03 22:38:00,46.9,37.6,29.69,SE,133,4.0,14.0,70,0.00,,,0.00,WeatherCatV1.21B27,2013-11-04 04:38:00,
2013-11-03 22:43:00,46.9,37.6,29.69,SE,131,9.0,9.0,70,0.00,,,0.00,WeatherCatV1.21B27,2013-11-04 04:43:00,
2013-11-03 22:48:00,46.9,37.6,29.69,SSE,154,3.0,5.0,70,0.00,,,0.00,WeatherCatV1.21B27,2013-11-04 04:48:00,
2013-11-03 22:53:00,46.7,37.8,29.69,ESE,107,8.0,8.0,71,0.00,,,0.00,WeatherCatV1.21B27,2013-11-04 04:53:00,
2013-11-03 22:58:00,46.7,37.8,29.69,SE,126,0.0,2.0,71,0.00,,,0.00,WeatherCatV1.21B27,2013-11-04 04:58:00,
2013-11-03 23:01:00,46.6,37.7,29.69,SE,126,1.0,2.0,71,0.00,,,0.00,WeatherCatV1.21B27,2013-11-04 05:01:00,
2013-11-03 23:02:00,46.6,37.7,29.69,ESE,123,2.0,4.0,71,0.00,,,0.00,WeatherCatV1.21B27,2013-11-04 05:02:00,
2013-11-03 23:07:00,46.5,38.0,29.69,SE,139,3.0,8.0,72,0.00,,,0.00,WeatherCatV1.21B27,2013-11-04 05:07:00,
2013-11-03 23:12:00,46.5,38.0,29.69,SE,129,3.0,8.0,72,0.00,,,0.00,WeatherCatV1.21B27,2013-11-04 05:12:00,
2013-11-03 23:17:00,46.7,38.2,29.69,SE,130,6.0,10.0,72,0.00,,,0.00,WeatherCatV1.21B27,2013-11-04 05:17:00,
2013-11-03 23:22:00,46.7,38.2,29.68,ESE,117,2.0,7.0,72,0.00,,,0.00,WeatherCatV1.21B27,2013-11-04 05:22:00,
2013-11-03 23:27:00,46.6,38.1,29.68,SE,127,1.0,7.0,72,0.00,,,0.00,WeatherCatV1.21B27,2013-11-04 05:27:00,
2013-11-03 23:32:00,46.7,38.2,29.68,ESE,111,1.0,5.0,72,0.00,,,0.00,WeatherCatV1.21B27,2013-11-04 05:32:00,
2013-11-03 23:37:00,46.6,38.4,29.68,SE,139,5.0,7.0,73,0.00,,,0.00,WeatherCatV1.21B27,2013-11-04 05:37:00,
2013-11-03 23:42:00,46.5,38.3,29.68,SE,125,2.0,3.0,73,0.00,,,0.00,WeatherCatV1.21B27,2013-11-04 05:42:00,
2013-11-03 23:47:00,46.4,38.2,29.68,SE,141,1.0,7.0,73,0.00,,,0.00,WeatherCatV1.21B27,2013-11-04 05:47:00,
2013-11-03 23:52:00,46.5,38.3,29.68,SE,137,0.0,8.0,73,0.00,,,0.00,WeatherCatV1.21B27,2013-11-04 05:52:00,
2013-11-03 23:57:00,46.4,38.2,29.68,ESE,111,4.0,5.0,73,0.00,,,0.00,WeatherCatV1.21B27,2013-11-04 05:57:00,